Time,TemperatureF,DewpointF,PressureIn,WindDirection,WindDirectionDegrees,WindSpeedMPH,WindSpeedGustMPH,Humidity,HourlyPrecipIn,Conditions,Clouds,dailyrainin,SoftwareType,DateUTC
2013-04-04 00:03:00,28.0,15.0,30.29,NW,311,2.0,2.0,57,0.00,,,0.00,,2013-04-04 04:03:00,
2013-04-04 00:13:00,28.0,15.0,30.29,NW,311,2.0,2.0,57,0.00,,,0.00,,2013-04-04 04:13:00,
2013-04-04 00:23:00,28.0,15.0,30.29,NE,41,2.0,2.0,57,0.00,,,0.00,,2013-04-04 04:23:00,
2013-04-04 00:33:00,27.0,15.0,30.28,SE,141,1.0,3.0,60,0.00,,,0.00,,2013-04-04 04:33:00,
2013-04-04 00:43:00,27.0,15.0,30.28,SE,141,1.0,3.0,60,0.00,,,0.00,,2013-04-04 04:43:00,
2013-04-04 00:53:00,27.0,15.0,30.28,SE,141,0.0,2.0,61,0.00,,,0.00,,2013-04-04 04:53:00,
2013-04-04 01:02:00,26.0,16.0,30.29,NW,304,0.0,2.0,66,0.00,,,0.00,,2013-04-04 05:02:00,
2013-04-04 01:13:00,26.0,16.0,30.29,NW,304,0.0,2.0,66,0.00,,,0.00,,2013-04-04 05:13:00,
2013-04-04 01:23:00,25.0,16.0,30.29,NW,306,0.0,0.0,67,0.00,,,0.00,,2013-04-04 05:23:00,
2013-04-04 01:32:00,25.0,16.0,30.28,NW,306,1.0,2.0,68,0.00,,,0.00,,2013-04-04 05:32:00,
2013-04-04 01:42:00,25.0,16.0,30.28,NW,306,1.0,2.0,68,0.00,,,0.00,,2013-04-04 05:42:00,
2013-04-04 01:53:00,26.0,17.0,30.28,NW,323,0.0,2.0,67,0.00,,,0.00,,2013-04-04 05:53:00,
2013-04-04 02:02:00,24.0,16.0,30.28,North,355,1.0,2.0,70,0.00,,,0.00,,2013-04-04 06:02:00,
2013-04-04 02:12:00,24.0,16.0,30.28,North,355,1.0,2.0,70,0.00,,,0.00,,2013-04-04 06:12:00,
2013-04-04 02:22:00,24.0,16.0,30.27,North,357,1.0,3.0,70,0.00,,,0.00,,2013-04-04 06:22:00,
2013-04-04 02:32:00,24.0,16.0,30.26,North,9,1.0,3.0,71,0.00,,,0.00,,2013-04-04 06:32:00,
2013-04-04 02:42:00,24.0,16.0,30.26,North,9,1.0,3.0,71,0.00,,,0.00,,2013-04-04 06:42:00,
2013-04-04 02:53:00,24.0,16.0,30.25,East,82,4.0,6.0,71,0.00,,,0.00,,2013-04-04 06:53:00,
2013-04-04 03:02:00,24.0,16.0,30.25,East,89,3.0,7.0,70,0.00,,,0.00,,2013-04-04 07:02:00,
2013-04-04 03:12:00,24.0,16.0,30.25,East,89,3.0,7.0,70,0.00,,,0.00,,2013-04-04 07:12:00,
2013-04-04 03:22:00,24.0,15.0,30.25,ESE,102,3.0,5.0,69,0.00,,,0.00,,2013-04-04 07:22:00,
2013-04-04 03:32:00,24.0,15.0,30.25,ESE,103,3.0,5.0,69,0.00,,,0.00,,2013-04-04 07:32:00,
2013-04-04 03:43:00,24.0,15.0,30.25,ESE,103,3.0,5.0,69,0.00,,,0.00,,2013-04-04 07:43:00,
2013-04-04 03:53:00,25.0,16.0,30.24,ENE,74,2.0,5.0,68,0.00,,,0.00,,2013-04-04 07:53:00,
2013-04-04 04:02:00,26.0,16.0,30.24,NNE,23,2.0,4.0,66,0.00,,,0.00,,2013-04-04 08:02:00,
2013-04-04 04:12:00,26.0,16.0,30.24,NNE,23,2.0,4.0,66,0.00,,,0.00,,2013-04-04 08:12:00,
2013-04-04 04:23:00,25.0,16.0,30.24,North,10,2.0,2.0,67,0.00,,,0.00,,2013-04-04 08:23:00,
2013-04-04 04:32:00,25.0,16.0,30.24,ENE,70,3.0,4.0,68,0.00,,,0.00,,2013-04-04 08:32:00,
2013-04-04 04:43:00,25.0,16.0,30.24,ENE,70,3.0,4.0,68,0.00,,,0.00,,2013-04-04 08:43:00,
2013-04-04 04:52:00,25.0,16.0,30.24,East,101,2.0,4.0,69,0.00,,,0.00,,2013-04-04 08:52:00,
2013-04-04 05:03:00,25.0,16.0,30.24,ENE,63,2.0,3.0,67,0.00,,,0.00,,2013-04-04 09:03:00,
2013-04-04 05:13:00,25.0,16.0,30.24,ENE,63,2.0,3.0,67,0.00,,,0.00,,2013-04-04 09:13:00,
2013-04-04 05:22:00,25.0,16.0,30.24,ENE,70,2.0,5.0,68,0.00,,,0.00,,2013-04-04 09:22:00,
2013-04-04 05:33:00,25.0,16.0,30.24,ENE,64,2.0,3.0,69,0.00,,,0.00,,2013-04-04 09:33:00,
2013-04-04 05:43:00,25.0,16.0,30.24,ENE,64,2.0,3.0,69,0.00,,,0.00,,2013-04-04 09:43:00,
2013-04-04 05:54:00,25.0,16.0,30.23,ENE,64,2.0,4.0,69,0.00,,,0.00,,2013-04-04 09:54:00,
2013-04-04 06:04:00,25.0,16.0,30.23,NNE,33,2.0,3.0,68,0.00,,,0.00,,2013-04-04 10:04:00,
2013-04-04 06:12:00,25.0,16.0,30.23,NNE,33,2.0,3.0,68,0.00,,,0.00,,2013-04-04 10:12:00,
2013-04-04 06:24:00,25.0,16.0,30.23,ENE,67,2.0,3.0,69,0.00,,,0.00,,2013-04-04 10:24:00,
2013-04-04 06:33:00,26.0,17.0,30.24,North,10,1.0,2.0,67,0.00,,,0.00,,2013-04-04 10:33:00,
2013-04-04 06:42:00,26.0,17.0,30.24,North,10,1.0,2.0,67,0.00,,,0.00,,2013-04-04 10:42:00,
2013-04-04 06:54:00,25.0,17.0,30.23,NNE,32,2.0,3.0,71,0.00,,,0.00,,2013-04-04 10:54:00,
2013-04-04 07:03:00,25.0,17.0,30.24,ENE,64,2.0,3.0,71,0.00,,,0.00,,2013-04-04 11:03:00,
2013-04-04 07:12:00,25.0,17.0,30.24,ENE,64,2.0,3.0,71,0.00,,,0.00,,2013-04-04 11:12:00,
2013-04-04 07:22:00,25.0,17.0,30.24,ENE,72,2.0,4.0,70,0.00,,,0.00,,2013-04-04 11:22:00,
2013-04-04 07:33:00,25.0,17.0,30.24,NNE,25,3.0,3.0,72,0.00,,,0.00,,2013-04-04 11:33:00,
2013-04-04 07:42:00,25.0,17.0,30.24,NNE,25,3.0,3.0,72,0.00,,,0.00,,2013-04-04 11:42:00,
2013-04-04 07:55:00,26.0,17.0,30.25,NNE,25,2.0,2.0,67,0.00,,,0.00,,2013-04-04 11:55:00,
2013-04-04 08:03:00,26.0,17.0,30.25,NE,53,3.0,4.0,69,0.00,,,0.00,,2013-04-04 12:03:00,
2013-04-04 08:12:00,26.0,17.0,30.25,NE,53,3.0,4.0,69,0.00,,,0.00,,2013-04-04 12:12:00,
2013-04-04 08:23:00,27.0,18.0,30.26,NNE,15,2.0,3.0,68,0.00,,,0.00,,2013-04-04 12:23:00,
2013-04-04 08:33:00,27.0,18.0,30.26,NNE,31,2.0,3.0,69,0.00,,,0.00,,2013-04-04 12:33:00,
2013-04-04 08:43:00,27.0,18.0,30.26,NNE,31,2.0,3.0,69,0.00,,,0.00,,2013-04-04 12:43:00,
2013-04-04 08:53:00,28.0,18.0,30.27,North,9,1.0,2.0,66,0.00,,,0.00,,2013-04-04 12:53:00,
2013-04-04 09:02:00,29.0,18.0,30.27,NNE,13,2.0,3.0,62,0.00,,,0.00,,2013-04-04 13:02:00,
2013-04-04 09:12:00,29.0,18.0,30.27,NNE,13,2.0,3.0,62,0.00,,,0.00,,2013-04-04 13:12:00,
2013-04-04 09:22:00,31.0,18.0,30.27,North,6,2.0,3.0,57,0.00,,,0.00,,2013-04-04 13:22:00,
2013-04-04 09:33:00,32.0,19.0,30.27,East,80,2.0,6.0,57,0.00,,,0.00,,2013-04-04 13:33:00,
2013-04-04 09:43:00,32.0,19.0,30.27,East,80,2.0,6.0,57,0.00,,,0.00,,2013-04-04 13:43:00,
2013-04-04 09:53:00,33.0,15.0,30.25,ENE,68,4.0,8.0,48,0.00,,,0.00,,2013-04-04 13:53:00,
2013-04-04 10:03:00,34.0,15.0,30.25,East,100,4.0,6.0,45,0.00,,,0.00,,2013-04-04 14:03:00,
2013-04-04 10:13:00,34.0,15.0,30.25,East,100,4.0,6.0,45,0.00,,,0.00,,2013-04-04 14:13:00,
2013-04-04 10:22:00,35.0,15.0,30.23,ESE,116,3.0,7.0,43,0.00,,,0.00,,2013-04-04 14:22:00,
2013-04-04 10:33:00,35.0,15.0,30.22,East,96,5.0,9.0,43,0.00,,,0.00,,2013-04-04 14:33:00,
2013-04-04 10:43:00,35.0,15.0,30.22,East,96,5.0,9.0,43,0.00,,,0.00,,2013-04-04 14:43:00,
2013-04-04 10:53:00,36.0,15.0,30.22,SE,129,5.0,9.0,42,0.00,,,0.00,,2013-04-04 14:53:00,
2013-04-04 11:02:00,38.0,14.0,30.21,NE,53,4.0,10.0,37,0.00,,,0.00,,2013-04-04 15:02:00,
2013-04-04 11:12:00,38.0,14.0,30.21,NE,53,4.0,10.0,37,0.00,,,0.00,,2013-04-04 15:12:00,
2013-04-04 11:23:00,39.0,15.0,30.20,ENE,65,5.0,10.0,37,0.00,,,0.00,,2013-04-04 15:23:00,
2013-04-04 11:33:00,40.0,16.0,30.20,South,187,4.0,8.0,38,0.00,,,0.00,,2013-04-04 15:33:00,
2013-04-04 11:43:00,40.0,16.0,30.20,South,187,4.0,8.0,38,0.00,,,0.00,,2013-04-04 15:43:00,
2013-04-04 11:54:00,41.0,16.0,30.19,North,9,3.0,7.0,36,0.00,,,0.00,,2013-04-04 15:54:00,
2013-04-04 12:03:00,42.0,17.0,30.19,South,172,4.0,6.0,36,0.00,,,0.00,,2013-04-04 16:03:00,
2013-04-04 12:13:00,42.0,17.0,30.19,South,172,4.0,6.0,36,0.00,,,0.00,,2013-04-04 16:13:00,
2013-04-04 12:24:00,42.0,18.0,30.18,South,183,3.0,6.0,37,0.00,,,0.00,,2013-04-04 16:24:00,
2013-04-04 12:33:00,42.0,16.0,30.17,East,89,4.0,7.0,35,0.00,,,0.00,,2013-04-04 16:33:00,
2013-04-04 12:43:00,42.0,16.0,30.17,East,89,4.0,7.0,35,0.00,,,0.00,,2013-04-04 16:43:00,
2013-04-04 12:54:00,42.0,16.0,30.17,ESE,113,3.0,7.0,35,0.00,,,0.00,,2013-04-04 16:54:00,
2013-04-04 13:03:00,42.0,16.0,30.16,South,178,5.0,6.0,35,0.00,,,0.00,,2013-04-04 17:03:00,
2013-04-04 13:14:00,42.0,16.0,30.16,South,178,5.0,6.0,35,0.00,,,0.00,,2013-04-04 17:14:00,
2013-04-04 13:23:00,41.0,17.0,30.15,ENE,77,3.0,9.0,37,0.00,,,0.00,,2013-04-04 17:23:00,
2013-04-04 13:33:00,41.0,17.0,30.15,ESE,112,3.0,9.0,38,0.00,,,0.00,,2013-04-04 17:33:00,
2013-04-04 13:43:00,41.0,17.0,30.15,ESE,112,3.0,9.0,38,0.00,,,0.00,,2013-04-04 17:43:00,
2013-04-04 13:53:00,41.0,17.0,30.15,SW,233,2.0,6.0,38,0.00,,,0.00,,2013-04-04 17:53:00,
2013-04-04 14:02:00,41.0,17.0,30.15,SSE,148,2.0,7.0,38,0.00,,,0.00,,2013-04-04 18:02:00,
2013-04-04 14:12:00,41.0,17.0,30.15,SSE,148,2.0,7.0,38,0.00,,,0.00,,2013-04-04 18:12:00,
2013-04-04 14:23:00,41.0,17.0,30.16,WSW,243,2.0,6.0,38,0.00,,,0.00,,2013-04-04 18:23:00,
2013-04-04 14:32:00,41.0,18.0,30.16,SSW,208,4.0,7.0,39,0.00,,,0.00,,2013-04-04 18:32:00,
2013-04-04 14:43:00,41.0,18.0,30.16,SSW,208,4.0,7.0,39,0.00,,,0.00,,2013-04-04 18:43:00,
2013-04-04 14:53:00,40.0,18.0,30.16,SE,129,3.0,8.0,40,0.00,,,0.00,,2013-04-04 18:53:00,
2013-04-04 15:02:00,40.0,18.0,30.14,SSE,150,4.0,11.0,41,0.00,,,0.00,,2013-04-04 19:02:00,
2013-04-04 15:12:00,40.0,18.0,30.14,SSE,150,4.0,11.0,41,0.00,,,0.00,,2013-04-04 19:12:00,
2013-04-04 15:22:00,40.0,18.0,30.13,South,189,2.0,5.0,41,0.00,,,0.00,,2013-04-04 19:22:00,
2013-04-04 15:33:00,40.0,19.0,30.13,SSW,200,1.0,5.0,42,0.00,,,0.00,,2013-04-04 19:33:00,
2013-04-04 15:42:00,40.0,19.0,30.13,SSW,200,1.0,5.0,42,0.00,,,0.00,,2013-04-04 19:42:00,
2013-04-04 15:52:00,39.0,18.0,30.12,WSW,242,2.0,7.0,42,0.00,,,0.00,,2013-04-04 19:52:00,
2013-04-04 16:04:00,39.0,19.0,30.12,SSW,196,1.0,9.0,44,0.00,,,0.00,,2013-04-04 20:04:00,
2013-04-04 16:12:00,39.0,19.0,30.12,SSW,196,1.0,9.0,44,0.00,,,0.00,,2013-04-04 20:12:00,
2013-04-04 16:23:00,38.0,19.0,30.12,SSE,159,4.0,6.0,46,0.00,,,0.00,,2013-04-04 20:23:00,
2013-04-04 16:32:00,37.0,22.0,30.11,South,178,4.0,7.0,55,0.00,,,0.00,,2013-04-04 20:32:00,
2013-04-04 16:42:00,37.0,22.0,30.11,South,178,4.0,7.0,55,0.00,,,0.00,,2013-04-04 20:42:00,
2013-04-04 16:53:00,36.0,25.0,30.10,West,267,1.0,4.0,64,0.00,,,0.00,,2013-04-04 20:53:00,
2013-04-04 17:02:00,35.0,26.0,30.11,South,179,1.0,4.0,69,0.00,,,0.00,,2013-04-04 21:02:00,
2013-04-04 17:12:00,35.0,26.0,30.11,South,179,1.0,4.0,69,0.00,,,0.00,,2013-04-04 21:12:00,
2013-04-04 17:22:00,33.0,27.0,30.11,SE,136,0.0,3.0,77,0.00,,,0.00,,2013-04-04 21:22:00,
2013-04-04 17:33:00,32.0,28.0,30.10,ENE,65,2.0,4.0,84,0.00,,,0.00,,2013-04-04 21:33:00,
2013-04-04 17:43:00,32.0,28.0,30.10,ENE,65,2.0,4.0,84,0.00,,,0.00,,2013-04-04 21:43:00,
2013-04-04 17:53:00,31.0,28.0,30.10,NE,54,2.0,3.0,87,0.00,,,0.00,,2013-04-04 21:53:00,
2013-04-04 18:04:00,31.0,28.0,30.11,North,355,0.0,2.0,89,0.00,,,0.00,,2013-04-04 22:04:00,
2013-04-04 18:12:00,31.0,28.0,30.11,North,355,0.0,2.0,89,0.00,,,0.00,,2013-04-04 22:12:00,
2013-04-04 18:23:00,31.0,29.0,30.11,North,355,1.0,1.0,91,0.00,,,0.00,,2013-04-04 22:23:00,
2013-04-04 18:33:00,31.0,29.0,30.11,NNE,33,1.0,2.0,92,0.00,,,0.00,,2013-04-04 22:33:00,
2013-04-04 18:42:00,31.0,29.0,30.11,NNE,33,1.0,2.0,92,0.00,,,0.00,,2013-04-04 22:42:00,
2013-04-04 18:53:00,30.0,28.0,30.10,NNE,12,1.0,2.0,93,0.00,,,0.00,,2013-04-04 22:53:00,
2013-04-04 19:03:00,30.0,28.0,30.09,NNE,18,2.0,3.0,93,0.00,,,0.00,,2013-04-04 23:03:00,
2013-04-04 19:12:00,30.0,28.0,30.09,NNE,18,2.0,3.0,93,0.00,,,0.00,,2013-04-04 23:12:00,
2013-04-04 19:22:00,30.0,28.0,30.09,NNE,13,2.0,4.0,94,0.00,,,0.00,,2013-04-04 23:22:00,
2013-04-04 19:32:00,30.0,28.0,30.09,NNE,21,1.0,4.0,94,0.00,,,0.00,,2013-04-04 23:32:00,
2013-04-04 19:42:00,30.0,28.0,30.09,NNE,21,1.0,4.0,94,0.00,,,0.00,,2013-04-04 23:42:00,
2013-04-04 19:52:00,30.0,28.0,30.08,NNE,13,3.0,4.0,94,0.00,,,0.00,,2013-04-04 23:52:00,
2013-04-04 20:02:00,30.0,29.0,30.09,NNE,18,3.0,4.0,95,0.00,,,0.00,,2013-04-05 00:02:00,
2013-04-04 20:12:00,30.0,29.0,30.09,NNE,18,3.0,4.0,95,0.00,,,0.00,,2013-04-05 00:12:00,
2013-04-04 20:22:00,30.0,29.0,30.07,NNE,21,3.0,4.0,95,0.00,,,0.00,,2013-04-05 00:22:00,
2013-04-04 20:33:00,30.0,29.0,30.06,NNE,24,4.0,6.0,95,0.00,,,0.00,,2013-04-05 00:33:00,
2013-04-04 20:42:00,30.0,29.0,30.06,NNE,24,4.0,6.0,95,0.00,,,0.00,,2013-04-05 00:42:00,
2013-04-04 20:52:00,30.0,29.0,30.05,NNE,30,5.0,7.0,95,0.00,,,0.00,,2013-04-05 00:52:00,
2013-04-04 21:02:00,30.0,29.0,30.06,NE,55,4.0,8.0,95,0.00,,,0.00,,2013-04-05 01:02:00,
2013-04-04 21:12:00,30.0,29.0,30.06,NE,55,4.0,8.0,95,0.00,,,0.00,,2013-04-05 01:12:00,
2013-04-04 21:22:00,31.0,30.0,30.05,NNE,20,3.0,6.0,95,0.00,,,0.00,,2013-04-05 01:22:00,
2013-04-04 21:32:00,31.0,30.0,30.05,ENE,61,3.0,4.0,95,0.00,,,0.00,,2013-04-05 01:32:00,
2013-04-04 21:42:00,31.0,30.0,30.05,ENE,61,3.0,4.0,95,0.00,,,0.00,,2013-04-05 01:42:00,
2013-04-04 21:54:00,31.0,30.0,30.04,NE,41,3.0,5.0,95,0.00,,,0.00,,2013-04-05 01:54:00,
2013-04-04 22:03:00,31.0,30.0,30.04,North,8,2.0,5.0,95,0.00,,,0.00,,2013-04-05 02:03:00,
2013-04-04 22:12:00,31.0,30.0,30.04,North,8,2.0,5.0,95,0.00,,,0.00,,2013-04-05 02:12:00,
2013-04-04 22:22:00,31.0,30.0,30.04,NNE,29,4.0,5.0,95,0.00,,,0.00,,2013-04-05 02:22:00,
2013-04-04 22:32:00,31.0,30.0,30.03,North,9,6.0,9.0,95,0.00,,,0.00,,2013-04-05 02:32:00,
2013-04-04 22:42:00,31.0,30.0,30.03,North,9,6.0,9.0,95,0.00,,,0.00,,2013-04-05 02:42:00,
2013-04-04 22:52:00,31.0,30.0,30.03,NNE,27,4.0,8.0,95,0.00,,,0.00,,2013-04-05 02:52:00,
2013-04-04 23:02:00,31.0,30.0,30.01,NNE,20,4.0,5.0,95,0.00,,,0.00,,2013-04-05 03:02:00,
2013-04-04 23:12:00,31.0,30.0,30.01,NNE,20,4.0,5.0,95,0.00,,,0.00,,2013-04-05 03:12:00,
2013-04-04 23:22:00,31.0,30.0,30.00,NNE,33,4.0,8.0,95,0.00,,,0.00,,2013-04-05 03:22:00,
2013-04-04 23:32:00,31.0,30.0,30.00,ENE,74,4.0,6.0,95,0.00,,,0.00,,2013-04-05 03:32:00,
2013-04-04 23:43:00,31.0,30.0,30.00,ENE,74,4.0,6.0,95,0.00,,,0.00,,2013-04-05 03:43:00,
2013-04-04 23:54:00,31.0,30.0,29.99,NNE,15,3.0,7.0,95,0.00,,,0.00,,2013-04-05 03:54:00,